ORBCOMM FM113 [+]

Last updated on Fri Dec 29 2023 00:02:54 GMT+0000 (Coordinated Universal Time)

1 41185U 15081G 23361.71423110 .00001224 00000+0 31207-3 0 9992 2 41185 46.9989 209.9459 0000974 133.1105 226.9861 14.56156893427261
UTC large
Height (km)
Speed (km/s)
/
Latitude / Longitude
Inclination (degrees)
Orbital Period (minutes)
Azimuth
Elevation
Range (km)
Doppler Factor

Next 0 passes for location: London (51.5072 / 0.1276)

Sorry there are no passes over London.